Malmstrom AFB, MT

9:05 AM MDT on June 23, 2017 (GMT -0600)
Malmstrom AFB

Weather History for KGFA - July, 2013

Change the Weather History Date:

Monday, July 22, 2013

  Actual Average (KGTF) Record (KGTF)
Temperature  
Mean Temperature 72 °F -  
Max Temperature 87 °F 84 °F 102 °F (1960)
Min Temperature 57 °F 54 °F 43 °F (1990)
Cooling Degree Days 7    
Growing Degree Days 22 (Base 50)    
Moisture  
Dew Point 42 °F    
Average Humidity 37    
Maximum Humidity 67    
Minimum Humidity 15    
Precipitation  
Precipitation 0.00 in - - ()
Sea Level Pressure  
Sea Level Pressure 29.87 in    
Wind  
Wind Speed 8 mph (WSW)    
Max Wind Speed 25 mph    
Max Gust Speed 37 mph    
Visibility 10 miles    
Events      
Averages and records for this station are not official NWS values.
T = Trace of Precipitation, MM = Missing Value Source: NWS Daily Summary

Daily Weather History Graph

Daily Weather History Graph

Search for Another Location

Airport or City:

Trip Planner

Search our weather history database for the weather conditions in past years. The results will help you decide how hot, cold, wet, or windy it might be!

Date:

Astronomy

Jul. 22, 2013 Rise Set
Actual Time 5:50 AM MDT 9:10 PM MDT
Civil Twilight 5:13 AM MDT 9:48 PM MDT
Nautical Twilight 4:23 AM MDT 10:37 PM MDT
Astronomical Twilight 3:20 AM MDT 11:40 PM MDT
Moon 8:51 PM MDT (7/22) 5:56 AM MDT (7/22)
Length of Visible Light 16h 34m
Length of Day
15h 20m
Full, 100% of the Moon is Illuminated
Jul 22
Full
Jul 22
Full
Jul 29
Last Quarter
Aug 6
New
Aug 14
First Quarter

Hourly Weather History & Observations

Time (MDT) Temp. Dew Point Humidity Pressure Visibility Wind Dir Wind Speed Gust Speed Precip Events Conditions
12:56 AM 66.0 °F 46.0 °F 48% 29.83 in 10.0 mi East 8.1 mph - N/A   Clear
1:56 AM 68.0 °F 45.0 °F 43% 29.81 in 10.0 mi SSE 11.5 mph - N/A   Clear
2:56 AM 64.0 °F 43.0 °F 46% 29.82 in 10.0 mi Calm Calm - N/A   Clear
3:56 AM 57.0 °F 43.0 °F 59% 29.83 in 10.0 mi SE 3.5 mph - N/A   Clear
4:56 AM 62.1 °F 44.1 °F 52% 29.82 in 10.0 mi SW 5.8 mph - N/A   Clear
5:56 AM 60.1 °F 46.9 °F 62% 29.83 in 10.0 mi WSW 8.1 mph - N/A   Clear
6:56 AM 59.0 °F 48.0 °F 67% 29.85 in 10.0 mi SW 6.9 mph - N/A   Clear
7:56 AM 63.0 °F 48.0 °F 58% 29.86 in 10.0 mi SW 5.8 mph - N/A   Clear
8:56 AM 68.0 °F 50.0 °F 52% 29.87 in 10.0 mi WSW 4.6 mph - N/A   Clear
9:56 AM 73.0 °F 46.9 °F 39% 29.88 in 10.0 mi WSW 6.9 mph - N/A   Clear
10:56 AM 79.0 °F 44.1 °F 29% 29.86 in 10.0 mi WSW 10.4 mph - N/A   Clear
11:56 AM 84.0 °F 32.0 °F 15% 29.85 in 10.0 mi West 13.8 mph - N/A   Clear
12:56 PM 84.9 °F 34.0 °F 16% 29.86 in 10.0 mi West 11.5 mph - N/A   Clear
1:56 PM 87.1 °F 35.1 °F 16% 29.84 in 10.0 mi NW 4.6 mph - N/A   Clear
2:56 PM 87.1 °F 39.9 °F 19% 29.85 in 10.0 mi Variable 3.5 mph - N/A   Clear
3:56 PM 84.0 °F 44.1 °F 25% 29.90 in 10.0 mi NW 25.3 mph 36.8 mph N/A   Clear
4:56 PM 84.9 °F 41.0 °F 21% 29.88 in 10.0 mi North 20.7 mph - N/A   Clear
5:56 PM 84.9 °F 39.0 °F 20% 29.89 in 10.0 mi North 16.1 mph - N/A   Clear
6:56 PM 84.0 °F 33.1 °F 16% 29.91 in 10.0 mi North 18.4 mph 27.6 mph N/A   Clear
7:56 PM 78.1 °F 39.0 °F 25% 29.94 in 10.0 mi NNE 9.2 mph - N/A   Clear
8:56 PM 70.0 °F 41.0 °F 35% 29.94 in 10.0 mi ESE 6.9 mph - N/A   Clear
9:56 PM 66.0 °F 41.0 °F 40% 29.95 in 10.0 mi SSE 5.8 mph - N/A   Clear
10:56 PM 64.9 °F 39.9 °F 40% 29.95 in 10.0 mi South 4.6 mph - N/A   Clear
11:56 PM 64.0 °F 39.9 °F 41% 29.95 in 10.0 mi SSW 3.5 mph - N/A   Clear